SCP
0 0 0 0 -0 -0 -0 -0 -0 -0 -0 -0 -0 -0 -0 -0 -0 -0 -0 -0 -0 -0 -0 -0 -0 -0 -0 -0 -0 -0 -0 -0 -0 -0 -0 -0 -0 -0 -0 -0 0 0 -0
-0 0 0 -0 -0 -0 -0 -0 -0 -0 -0 -0 -0 -0 -0 -0 -0 -0 -0 -0 -0 -0 -0 -0 -0 -0 -0 -0 -0 -0 -0 -0 -0 -0 -0 -0 -0 -0 -0 -0 -0 -0 -0
0 0 0 0 -0 -0 0 0 0 -0 -0 -0 -0 -0 -0 -0 -0 -0 -0 -0 -0 -0 -0 -0 -0 -0 -0 -0 -0 -0 -0 -0 -0 -0 -0 0 0 -0 -0 -0 -0 -0 -0
-0 0 0 0 0 -0 0 0 -0 -0 -0 -0 -0 -0 -0 -0 -0 -0 -0 -0 -0 -0 -0 -0 -0 -0 -0 -0 -0 -0 -0 -0 -0 -0 0 0 0 -0 -0 -0 0 0 0
-0 0 0 0 0 -0 -0 -0 -0 -0 -0 -0 -0 -0 -0 -0 -0 -0 -0 -0 -0 -0 -0 -0 -0 -0 -0 -0 -0 -0 -0 -0 -0 0 0 0 0 0 0 0 0 0 0
-0 -0 -0 0 0 -0 -0 -0 -0 -0 -0 -0 -0 -0 -0 -0 -0 -0 -0 -0 -0 -0 -0 -0 -0 -0 -0 -0 -0 -0 -0 -0 0 0 0 0 0 0 0 0 0 0 0
-0 -0 -0 0 0 -0 0 0 0 -0 -0 -0 -0 -0 -0 -0 -0 -0 -0 -0 -0 -0 -0 -0 -0 -0 -0 -0 -0 -0 0 0 0 0 0 0 0 0 0 0 0 0 0
0 0 0 0 0 0 0 0 0 0 0 -0 -0 -0 -0 -0 -0 -0 -0 -0 -0 -0 -0 -0 -0 -0 -0 -0 -0 -0 0 0 0 0 0 0 0 0 0 0 0 0 0
0 0 0 0 0 0 0 0 0 0 0 0 0 0 0 -0 -0 -0 -0 -0 -0 -0 -0 -0 -0 -0 -0 -0 0 0 0 0 0 0 0 0 0 0 0 0 0 0 0
0 0 0 0 0 0 0 0 0 0 0 0 0 0 0 -0 -0 -0 -0 -0 -0 -0 -0 -0 -0 -0 0 0 0 0 0 0 0 0 0 0 0 0 0 0 0 0 0
0 0 0 0 0 0 0 0 0 0 -0 -0 -0 0 0 0 0 -0 -0 -0 -0 -0 -0 0 0 0 0 0 0 0 0 0 0 0 0 0 0 0 0 0 0 0 0
0 0 0 0 0 0 0 0 0 0 0 -0 -0 -0 -0 -0 0 -0 -0 -0 -0 0 0 0 0 0 0 0 0 0 0 0 0 0 0 0 0 0 0 0 0 0 0
0 0 0 0 0 0 0 0 0 0 0 -0 -0 -0 -0 0 0 0 0 0 0 0 0 0 0 0 0 0 0 0 0 0 0 0 0 0 0 0 0 0 0 0 0
0 0 0 -0 -0 0 0 0 0 0 -0 -0 -0 -0 0 -0 0 0 0 0 0 0 0 0 0 0 0 0 0 0 0 0 0 0 0 0 0 0 0 0 0 0 0
0 0 0 0 0 0 0 0 0 -0 -0 -0 0 0 -0 -0 0 0 0 0 0 0 0 0 0 0 0 0 0 0 0 0 0 0 0 0 0 0 0 0 0 0 0
0 0 0 0 0 0 0 0 -0 -0 0 0 0 -0 -0 0 0 0 0 0 0 0 0 0 0 0 0 0 0 0 0 0 0 0 0 0 0 0 0 0 0 0 0
0 0 0 0 0 0 0 0 -0 -0 0 0 0 0 0 0 0 0 0 0 0 0 0 0 0 0 0 0 0 0 0 0 0 0 0 0 0 0 0 0 0 0 0
0 0 0 0 0 0 0 0 0 0 0 0 0 0 0 0 0 0 0 0 0 0 0 0 0 0 0 0 0 0 0 0 0 0 0 0 0 0 0 0 0 0 0
0 0 0 0 0 0 0 0 0 0 0 0 0 0 0 0 0 0 0 0 0 0 0 0 0 0 0 0 0 0 0 0 0 0 0 0 0 0 0 0 0 0 0
0 0 0 0 0 0 0 0 0 0 0 0 0 0 0 0 0 0 0 0 0 0 0 0 0 0 0 0 0 0 0 0 0 0 0 0 0 0 0 0 0 0 0
0 0 0 0 0 0 0 0 0 0 0 0 0 0 0 0 0 0 0 0 0 0 0 0 0 0 0 0 0 0 0 0 0 0 0 0 0 0 0 0 0 0 0
0 0 0 0 0 0 0 0 0 0 0 0 0 0 0 0 0 0 0 0 0 0 0 0 0 0 0 0 0 0 0 0 0 0 0 0 0 0 0 0 0 0 0
0 0 0 0 0 0 0 0 0 0 0 0 0 0 0 0 0 0 0 0 0 0 0 0 0 0 0 0 0 0 0 0 0 0 0 0 0 0 0 0 0 0 0
0 0 0 0 0 0 0 0 0 0 0 0 0 0 0 0 0 0 0 0 0 0 0 0 0 0 0 0 0 0 0 0 0 0 0 0 0 0 0 0 0 0 0
0 0 0 0 0 0 0 0 0 0 0 0 0 0 0 0 0 0 0 0 0 0 0 0 0 0 0 0 0 0 0 0 0 0 0 0 0 0 0 0 0 0 0
0 0 0 0 0 0 0 0 0 0 0 0 0 0 0 0 0 0 0 0 0 0 0 0 0 0 0 0 0 0 0 0 0 0 0 0 0 0 0 0 0 0 0
Wind_Speed_500mb
33 29 25 23 22 19 18 17 16 18 15 22 21 21 22 21 20 17 14 15 18 30 33 35 33 25 23 21 18 15 13 13 11 9 6 4 8 4 7 9 8 19 20
35 31 27 22 20 12 16 20 18 18 18 22 23 18 21 18 16 13 13 20 33 34 34 33 32 28 24 20 20 21 18 15 13 13 14 18 28 31 29 32 33 27 25
35 31 24 23 22 20 17 21 18 19 21 24 26 27 25 28 28 25 31 35 35 35 34 32 28 25 23 23 24 25 23 19 18 17 20 24 29 24 24 25 23 24 27
34 33 29 26 22 20 21 19 20 21 26 30 24 26 28 33 35 35 33 34 32 31 27 26 22 20 21 23 22 24 25 23 15 9 11 11 21 22 25 24 27 24 22
31 30 25 25 24 22 20 18 19 21 22 32 21 20 28 28 33 34 28 33 30 26 22 20 15 15 18 20 21 26 30 30 25 16 11 10 26 20 22 16 18 20 15
27 28 23 23 25 25 22 17 18 19 21 28 29 25 22 28 32 29 22 23 21 20 19 19 17 17 16 18 21 24 27 29 26 21 22 21 20 17 22 20 21 18 17
29 29 29 30 27 26 21 17 18 17 19 23 28 28 23 26 27 23 17 18 19 19 20 20 18 16 18 17 17 19 23 27 25 19 18 15 14 17 16 14 14 13 12
32 35 32 31 29 27 20 17 18 18 20 23 22 20 21 23 25 17 15 16 17 19 20 20 17 16 17 16 18 20 23 29 30 24 21 18 18 17 17 21 20 18 15
38 36 33 34 31 27 21 17 19 19 20 24 21 21 21 22 22 17 18 17 18 18 18 17 16 16 16 15 17 22 25 26 28 25 26 23 19 20 20 20 20 20 21
36 35 36 36 32 28 21 19 20 19 19 21 21 20 18 17 15 14 18 19 18 17 14 15 16 15 16 14 16 22 24 22 24 24 25 26 26 26 23 22 21 22 23
35 36 36 37 36 29 24 23 21 20 19 20 20 18 15 13 12 11 14 16 16 16 16 16 17 18 16 15 17 19 24 24 23 24 24 25 26 26 26 26 25 25 25
39 38 35 35 34 30 26 25 22 19 18 18 17 16 15 13 11 10 11 11 12 15 15 16 16 18 18 18 17 19 22 25 25 25 24 23 25 27 27 27 28 29 29
42 41 39 35 32 31 28 26 23 20 17 17 16 15 12 11 10 9 8 8 9 11 12 12 14 16 16 17 17 17 20 22 23 24 24 25 27 30 32 34 36 36 36
47 42 39 37 34 31 28 26 23 20 17 15 13 11 9 8 7 6 5 5 7 8 9 11 12 13 13 13 15 18 20 22 25 26 27 29 30 32 34 37 39 42 42
47 45 41 38 35 32 29 26 24 22 19 16 14 12 8 5 3 1 1 3 4 6 7 8 9 11 12 14 19 21 23 25 28 31 35 36 38 40 41 42 44 47 44
45 43 40 40 38 37 32 28 25 25 24 21 18 14 12 9 8 6 5 7 7 8 8 9 10 12 15 18 20 25 26 29 34 40 40 41 42 46 49 51 53 55 57
45 41 41 37 38 38 32 30 29 25 25 23 17 17 15 13 13 12 11 11 12 12 12 14 15 16 19 25 30 34 38 40 41 44 47 49 46 47 51 51 54 55 58
44 43 38 36 34 32 31 28 27 25 25 22 21 19 15 15 15 16 15 16 16 16 17 18 20 22 27 31 35 37 40 46 48 53 54 51 52 49 48 50 49 48 50
47 43 41 39 36 31 33 35 33 32 33 27 27 24 21 18 17 15 14 12 15 18 20 22 26 30 32 35 41 45 47 51 51 52 55 51 44 40 59 48 49 51 47
51 46 44 37 37 34 33 39 44 37 37 35 32 31 25 21 20 18 19 20 21 23 26 29 32 35 38 43 47 50 50 50 50 48 48 34 47 49 45 53 46 53 55
62 59 58 53 45 44 43 48 52 45 40 40 36 30 27 24 22 22 22 26 29 30 30 32 36 39 39 41 50 53 57 46 45 33 36 55 47 49 44 45 61 58 58
66 65 65 60 53 49 48 43 43 41 37 39 34 32 28 27 28 27 29 28 32 32 29 30 33 36 40 39 44 49 34 60 21 53 49 48 43 46 58 53 63 59 61
68 63 62 62 57 52 47 45 47 40 32 36 36 32 31 33 33 32 32 32 30 27 26 25 26 29 33 35 37 35 27 21 65 37 65 40 62 63 69 67 66 63 67
67 64 64 66 62 55 47 50 51 44 37 35 35 39 35 33 33 32 30 29 27 24 23 24 25 28 35 43 43 38 37 44 41 45 29 77 45 78 76 70 68 71 66
66 65 66 68 68 63 55 56 51 43 38 39 42 41 39 35 31 29 26 23 19 20 21 23 32 32 30 30 33 37 39 40 40 39 75 75 96 87 78 81 69 72 64
66 67 67 68 70 67 64 59 56 47 46 40 41 40 38 33 28 24 23 26 22 22 22 19 18 19 23 26 28 32 37 41 47 51 70 90 98 95 98 58 81 68 43
Wind_Direction_500mb
162 155 144 135 127 106 89 87 93 95 99 103 110 121 125 126 127 126 110 85 77 79 85 88 88 96 92 86 81 75 78 78 73 67 79 80 54 37 4 5 41 59 59
160 157 151 144 134 110 102 101 91 90 94 92 103 108 117 126 130 132 110 83 88 88 83 86 88 89 91 86 82 76 72 73 70 77 65 67 65 62 61 64 66 74 72
159 149 157 144 140 125 101 89 89 88 89 91 92 94 106 102 105 115 100 97 94 93 94 92 86 86 77 68 61 60 59 53 58 72 77 77 70 67 73 79 72 59 64
163 151 153 152 146 131 110 90 86 97 98 97 88 83 101 101 96 91 93 97 95 95 98 96 82 66 66 66 57 57 53 44 45 60 62 81 77 71 67 60 69 64 64
170 157 158 157 150 143 121 93 84 92 99 107 106 82 96 101 101 105 104 99 98 94 92 97 88 67 64 57 51 45 40 42 48 42 46 58 72 66 58 52 70 74 61
174 165 164 157 154 152 130 104 99 109 114 127 121 106 95 95 110 108 97 94 81 75 77 84 84 66 54 48 46 42 39 37 35 39 66 61 65 60 58 49 55 53 49
172 161 154 160 158 154 141 121 112 114 113 118 125 116 100 100 102 98 88 82 83 80 82 80 78 57 35 35 41 38 39 41 35 39 37 32 39 50 51 36 36 44 25
176 164 162 163 160 160 147 120 109 111 112 116 118 116 109 105 105 106 88 71 73 74 74 71 61 42 37 38 36 31 36 42 46 47 28 18 31 43 19 19 20 27 26
184 173 167 164 163 158 145 130 121 121 118 115 116 119 121 108 101 92 68 59 65 69 64 62 53 37 35 37 31 33 32 36 35 40 33 28 15 8 7 9 13 7 3
177 173 168 165 162 159 152 144 131 124 120 114 111 110 114 112 105 87 66 65 66 66 65 60 52 39 29 30 28 31 27 30 32 33 30 29 26 19 10 5 3 360 356
177 173 171 168 165 161 160 154 147 142 131 115 109 109 112 108 97 82 69 67 65 64 63 56 53 47 44 26 16 16 23 26 26 28 27 25 23 20 14 8 360 353 348
180 173 173 173 170 169 167 164 158 151 139 124 112 112 119 114 107 93 80 70 60 59 55 51 45 43 41 39 32 23 20 24 24 23 20 14 11 8 6 1 356 351 347
179 177 173 174 176 180 177 171 170 168 156 148 141 135 126 118 106 101 87 72 58 50 48 44 40 38 38 33 29 26 21 19 14 9 4 357 352 349 347 344 342 339 337
185 183 180 178 179 183 184 182 182 178 172 167 159 154 149 131 117 99 80 60 39 29 27 26 22 22 19 20 17 16 10 360 350 344 340 339 337 334 332 329 327 325 322
191 187 188 186 185 187 191 193 191 191 188 190 188 186 183 175 175 175 5 344 355 358 358 359 358 356 1 6 360 353 347 337 332 329 325 324 323 322 321 320 317 314 306
200 197 198 198 195 195 195 201 202 201 202 204 205 206 212 217 229 252 277 293 305 308 315 318 327 340 348 352 343 335 331 327 325 322 319 317 315 314 316 312 310 309 307
204 204 211 212 207 209 207 207 211 218 214 216 224 223 224 233 243 256 268 273 284 297 311 316 317 323 330 326 322 316 313 310 317 313 312 310 313 311 311 311 308 303 304
209 211 212 213 215 214 216 221 213 214 214 213 220 230 241 253 256 250 263 277 287 306 319 325 326 322 317 313 312 312 312 310 313 311 314 314 311 309 309 312 307 308 306
212 211 209 215 216 218 220 227 229 215 226 230 231 237 245 250 265 275 295 304 311 315 316 312 306 306 303 309 307 307 309 310 309 309 311 310 311 312 315 306 304 306 304
222 218 220 217 217 218 222 225 230 228 228 228 236 246 251 254 260 273 280 288 290 297 297 298 297 301 305 307 306 304 302 304 305 308 307 308 312 313 308 311 313 313 299
227 228 227 223 219 218 217 220 225 229 230 229 234 239 249 249 256 265 269 276 285 289 290 291 296 301 302 307 308 307 306 308 317 312 311 305 311 313 317 310 313 315 307
228 230 229 226 223 223 225 229 234 244 236 235 242 242 245 252 260 266 272 271 274 282 288 290 296 299 303 308 312 316 324 324 320 307 317 320 319 318 316 314 321 319 321
224 223 225 225 225 226 230 227 227 232 232 229 231 235 239 244 250 252 257 264 271 276 280 288 290 297 302 307 303 313 325 304 315 317 315 319 318 318 323 321 323 323 322
219 222 222 223 225 226 227 226 229 235 241 232 234 237 239 241 246 251 257 262 263 263 266 271 286 290 294 298 298 304 307 301 314 318 314 312 318 315 320 324 325 325 324
216 220 222 224 225 225 224 225 230 234 238 231 230 232 238 241 244 248 249 254 257 254 260 267 279 286 297 307 314 315 312 313 312 309 312 316 316 320 324 325 325 328 330
219 223 225 227 227 224 221 220 226 228 236 235 231 232 231 232 234 232 236 243 238 252 264 277 291 302 308 313 315 314 317 323 320 320 313 317 316 320 322 332 330 334 335
Wind_Speed_850mb
33 29 25 23 22 19 18 17 16 18 15 22 21 21 22 21 20 17 14 15 18 30 33 35 33 25 23 21 18 15 13 13 11 9 6 4 8 4 7 9 8 19 20
35 31 27 22 20 12 16 20 18 18 18 22 23 18 21 18 16 13 13 20 33 34 34 33 32 28 24 20 20 21 18 15 13 13 14 18 28 31 29 32 33 27 25
35 31 24 23 22 20 17 21 18 19 21 24 26 27 25 28 28 25 31 35 35 35 34 32 28 25 23 23 24 25 23 19 18 17 20 24 29 24 24 25 23 24 27
34 33 29 26 22 20 21 19 20 21 26 30 24 26 28 33 35 35 33 34 32 31 27 26 22 20 21 23 22 24 25 23 15 9 11 11 21 22 25 24 27 24 22
31 30 25 25 24 22 20 18 19 21 22 32 21 20 28 28 33 34 28 33 30 26 22 20 15 15 18 20 21 26 30 30 25 16 11 10 26 20 22 16 18 20 15
27 28 23 23 25 25 22 17 18 19 21 28 29 25 22 28 32 29 22 23 21 20 19 19 17 17 16 18 21 24 27 29 26 21 22 21 20 17 22 20 21 18 17
29 29 29 30 27 26 21 17 18 17 19 23 28 28 23 26 27 23 17 18 19 19 20 20 18 16 18 17 17 19 23 27 25 19 18 15 14 17 16 14 14 13 12
32 35 32 31 29 27 20 17 18 18 20 23 22 20 21 23 25 17 15 16 17 19 20 20 17 16 17 16 18 20 23 29 30 24 21 18 18 17 17 21 20 18 15
38 36 33 34 31 27 21 17 19 19 20 24 21 21 21 22 22 17 18 17 18 18 18 17 16 16 16 15 17 22 25 26 28 25 26 23 19 20 20 20 20 20 21
36 35 36 36 32 28 21 19 20 19 19 21 21 20 18 17 15 14 18 19 18 17 14 15 16 15 16 14 16 22 24 22 24 24 25 26 26 26 23 22 21 22 23
35 36 36 37 36 29 24 23 21 20 19 20 20 18 15 13 12 11 14 16 16 16 16 16 17 18 16 15 17 19 24 24 23 24 24 25 26 26 26 26 25 25 25
39 38 35 35 34 30 26 25 22 19 18 18 17 16 15 13 11 10 11 11 12 15 15 16 16 18 18 18 17 19 22 25 25 25 24 23 25 27 27 27 28 29 29
42 41 39 35 32 31 28 26 23 20 17 17 16 15 12 11 10 9 8 8 9 11 12 12 14 16 16 17 17 17 20 22 23 24 24 25 27 30 32 34 36 36 36
47 42 39 37 34 31 28 26 23 20 17 15 13 11 9 8 7 6 5 5 7 8 9 11 12 13 13 13 15 18 20 22 25 26 27 29 30 32 34 37 39 42 42
47 45 41 38 35 32 29 26 24 22 19 16 14 12 8 5 3 1 1 3 4 6 7 8 9 11 12 14 19 21 23 25 28 31 35 36 38 40 41 42 44 47 44
45 43 40 40 38 37 32 28 25 25 24 21 18 14 12 9 8 6 5 7 7 8 8 9 10 12 15 18 20 25 26 29 34 40 40 41 42 46 49 51 53 55 57
45 41 41 37 38 38 32 30 29 25 25 23 17 17 15 13 13 12 11 11 12 12 12 14 15 16 19 25 30 34 38 40 41 44 47 49 46 47 51 51 54 55 58
44 43 38 36 34 32 31 28 27 25 25 22 21 19 15 15 15 16 15 16 16 16 17 18 20 22 27 31 35 37 40 46 48 53 54 51 52 49 48 50 49 48 50
47 43 41 39 36 31 33 35 33 32 33 27 27 24 21 18 17 15 14 12 15 18 20 22 26 30 32 35 41 45 47 51 51 52 55 51 44 40 59 48 49 51 47
51 46 44 37 37 34 33 39 44 37 37 35 32 31 25 21 20 18 19 20 21 23 26 29 32 35 38 43 47 50 50 50 50 48 48 34 47 49 45 53 46 53 55
62 59 58 53 45 44 43 48 52 45 40 40 36 30 27 24 22 22 22 26 29 30 30 32 36 39 39 41 50 53 57 46 45 33 36 55 47 49 44 45 61 58 58
66 65 65 60 53 49 48 43 43 41 37 39 34 32 28 27 28 27 29 28 32 32 29 30 33 36 40 39 44 49 34 60 21 53 49 48 43 46 58 53 63 59 61
68 63 62 62 57 52 47 45 47 40 32 36 36 32 31 33 33 32 32 32 30 27 26 25 26 29 33 35 37 35 27 21 65 37 65 40 62 63 69 67 66 63 67
67 64 64 66 62 55 47 50 51 44 37 35 35 39 35 33 33 32 30 29 27 24 23 24 25 28 35 43 43 38 37 44 41 45 29 77 45 78 76 70 68 71 66
66 65 66 68 68 63 55 56 51 43 38 39 42 41 39 35 31 29 26 23 19 20 21 23 32 32 30 30 33 37 39 40 40 39 75 75 96 87 78 81 69 72 64
66 67 67 68 70 67 64 59 56 47 46 40 41 40 38 33 28 24 23 26 22 22 22 19 18 19 23 26 28 32 37 41 47 51 70 90 98 95 98 58 81 68 43
Wind_Direction_850mb
162 155 144 135 127 106 89 87 93 95 99 103 110 121 125 126 127 126 110 85 77 79 85 88 88 96 92 86 81 75 78 78 73 67 79 80 54 37 4 5 41 59 59
160 157 151 144 134 110 102 101 91 90 94 92 103 108 117 126 130 132 110 83 88 88 83 86 88 89 91 86 82 76 72 73 70 77 65 67 65 62 61 64 66 74 72
159 149 157 144 140 125 101 89 89 88 89 91 92 94 106 102 105 115 100 97 94 93 94 92 86 86 77 68 61 60 59 53 58 72 77 77 70 67 73 79 72 59 64
163 151 153 152 146 131 110 90 86 97 98 97 88 83 101 101 96 91 93 97 95 95 98 96 82 66 66 66 57 57 53 44 45 60 62 81 77 71 67 60 69 64 64
170 157 158 157 150 143 121 93 84 92 99 107 106 82 96 101 101 105 104 99 98 94 92 97 88 67 64 57 51 45 40 42 48 42 46 58 72 66 58 52 70 74 61
174 165 164 157 154 152 130 104 99 109 114 127 121 106 95 95 110 108 97 94 81 75 77 84 84 66 54 48 46 42 39 37 35 39 66 61 65 60 58 49 55 53 49
172 161 154 160 158 154 141 121 112 114 113 118 125 116 100 100 102 98 88 82 83 80 82 80 78 57 35 35 41 38 39 41 35 39 37 32 39 50 51 36 36 44 25
176 164 162 163 160 160 147 120 109 111 112 116 118 116 109 105 105 106 88 71 73 74 74 71 61 42 37 38 36 31 36 42 46 47 28 18 31 43 19 19 20 27 26
184 173 167 164 163 158 145 130 121 121 118 115 116 119 121 108 101 92 68 59 65 69 64 62 53 37 35 37 31 33 32 36 35 40 33 28 15 8 7 9 13 7 3
177 173 168 165 162 159 152 144 131 124 120 114 111 110 114 112 105 87 66 65 66 66 65 60 52 39 29 30 28 31 27 30 32 33 30 29 26 19 10 5 3 360 356
177 173 171 168 165 161 160 154 147 142 131 115 109 109 112 108 97 82 69 67 65 64 63 56 53 47 44 26 16 16 23 26 26 28 27 25 23 20 14 8 360 353 348
180 173 173 173 170 169 167 164 158 151 139 124 112 112 119 114 107 93 80 70 60 59 55 51 45 43 41 39 32 23 20 24 24 23 20 14 11 8 6 1 356 351 347
179 177 173 174 176 180 177 171 170 168 156 148 141 135 126 118 106 101 87 72 58 50 48 44 40 38 38 33 29 26 21 19 14 9 4 357 352 349 347 344 342 339 337
185 183 180 178 179 183 184 182 182 178 172 167 159 154 149 131 117 99 80 60 39 29 27 26 22 22 19 20 17 16 10 360 350 344 340 339 337 334 332 329 327 325 322
191 187 188 186 185 187 191 193 191 191 188 190 188 186 183 175 175 175 5 344 355 358 358 359 358 356 1 6 360 353 347 337 332 329 325 324 323 322 321 320 317 314 306
200 197 198 198 195 195 195 201 202 201 202 204 205 206 212 217 229 252 277 293 305 308 315 318 327 340 348 352 343 335 331 327 325 322 319 317 315 314 316 312 310 309 307
204 204 211 212 207 209 207 207 211 218 214 216 224 223 224 233 243 256 268 273 284 297 311 316 317 323 330 326 322 316 313 310 317 313 312 310 313 311 311 311 308 303 304
209 211 212 213 215 214 216 221 213 214 214 213 220 230 241 253 256 250 263 277 287 306 319 325 326 322 317 313 312 312 312 310 313 311 314 314 311 309 309 312 307 308 306
212 211 209 215 216 218 220 227 229 215 226 230 231 237 245 250 265 275 295 304 311 315 316 312 306 306 303 309 307 307 309 310 309 309 311 310 311 312 315 306 304 306 304
222 218 220 217 217 218 222 225 230 228 228 228 236 246 251 254 260 273 280 288 290 297 297 298 297 301 305 307 306 304 302 304 305 308 307 308 312 313 308 311 313 313 299
227 228 227 223 219 218 217 220 225 229 230 229 234 239 249 249 256 265 269 276 285 289 290 291 296 301 302 307 308 307 306 308 317 312 311 305 311 313 317 310 313 315 307
228 230 229 226 223 223 225 229 234 244 236 235 242 242 245 252 260 266 272 271 274 282 288 290 296 299 303 308 312 316 324 324 320 307 317 320 319 318 316 314 321 319 321
224 223 225 225 225 226 230 227 227 232 232 229 231 235 239 244 250 252 257 264 271 276 280 288 290 297 302 307 303 313 325 304 315 317 315 319 318 318 323 321 323 323 322
219 222 222 223 225 226 227 226 229 235 241 232 234 237 239 241 246 251 257 262 263 263 266 271 286 290 294 298 298 304 307 301 314 318 314 312 318 315 320 324 325 325 324
216 220 222 224 225 225 224 225 230 234 238 231 230 232 238 241 244 248 249 254 257 254 260 267 279 286 297 307 314 315 312 313 312 309 312 316 316 320 324 325 325 328 330
219 223 225 227 227 224 221 220 226 228 236 235 231 232 231 232 234 232 236 243 238 252 264 277 291 302 308 313 315 314 317 323 320 320 313 317 316 320 322 332 330 334 335